Date String (YYYY-MM-DD hh:mm:ss) UTC,Instrument flags,Ambient pressure (hPa),Sample flow (lpm),Bypass flow (lpm),Sample temperature (°C),Ambient temperature (°C),ASC tube jacket temperature (°C),LED temperature (°C),Box temperature (°C),Sample RH (%),Span deviation,Mass concentration (μg/m³),Mass concentration (μg/m³),Mass concentration (μg/m³)
DateTimeUTC,F1_M11,P_M11,Q1_M11,Q2_M11,T1_M11,T2_M11,T3_M11,T4_M11,T5_M11,U1_M11,ZSPAN_M11,X0_M11,X2_M11,X1_M11
2022-06-13 13:00:00,,0816.0,5.00,0.00,29.6,28.4,00.0,38.5,31.5,09.6,0000.0,0013.55,0005.54,0003.73
2022-06-13 13:01:00,,0816.0,5.01,0.00,29.6,28.5,00.0,38.5,31.5,09.9,0000.0,0013.60,0005.58,0003.74
2022-06-13 13:02:00,,0816.1,4.99,0.00,29.6,28.5,00.0,38.5,31.5,10.8,0000.0,0013.39,0005.56,0003.75
2022-06-13 13:03:00,,0816.0,4.99,0.00,29.6,28.6,00.0,38.5,31.5,09.4,0000.0,0013.16,0005.54,0003.74
2022-06-13 13:04:00,,0816.1,5.00,0.00,29.7,28.7,00.0,38.5,31.6,09.8,0000.0,0014.11,0005.60,0003.75
2022-06-13 13:05:00,,0816.1,5.00,0.00,29.7,28.7,00.0,38.5,31.6,10.5,0000.0,0014.81,0005.62,0003.76
2022-06-13 13:06:00,,0816.1,5.00,0.00,29.7,28.7,00.0,38.5,31.6,10.0,0000.0,0015.45,0005.65,0003.78
2022-06-13 13:07:00,,0816.1,5.01,0.00,29.7,28.8,00.0,38.6,31.7,10.0,0000.0,0015.70,0005.66,0003.78
2022-06-13 13:08:00,,0816.1,5.00,0.00,29.8,28.8,00.0,38.6,31.7,09.4,0000.0,0017.47,0005.74,0003.79
2022-06-13 13:09:00,,0816.1,5.00,0.00,29.8,28.9,00.0,38.6,31.7,08.2,0000.0,0019.00,0005.84,0003.82
2022-06-13 13:10:00,,0816.1,5.01,0.00,29.8,28.9,00.0,38.6,31.7,08.2,0000.0,0018.95,0005.92,0003.84
2022-06-13 13:11:00,,0816.1,4.99,0.00,29.8,28.9,00.0,38.6,31.7,09.0,0000.0,0019.79,0005.92,0003.87
2022-06-13 13:12:00,,0816.1,4.99,0.00,29.8,28.9,00.0,38.6,31.7,08.0,0000.0,0020.27,0005.93,0003.90
2022-06-13 13:13:00,,0816.1,5.00,0.00,29.8,29.0,00.0,38.6,31.7,08.3,0000.0,0020.87,0006.02,0003.93
2022-06-13 13:14:00,,0816.1,5.01,0.00,29.9,29.0,00.0,38.7,31.7,07.3,0000.0,0021.00,0006.06,0003.95
2022-06-13 13:15:00,,0816.1,4.99,0.00,29.9,28.6,00.0,38.6,31.7,07.5,0000.0,0021.01,0006.15,0003.97
2022-06-13 13:16:00,,0816.1,5.02,0.00,29.8,27.9,00.0,38.5,31.5,07.7,0000.0,0021.54,0006.23,0004.00
2022-06-13 13:17:00,,0816.0,5.01,0.00,29.7,27.6,00.0,38.5,31.4,07.9,0000.0,0021.90,0006.27,0004.01
2022-06-13 13:18:00,,0816.0,5.00,0.00,29.7,27.6,00.0,38.5,31.4,08.1,0000.0,0022.41,0006.24,0004.01
2022-06-13 13:19:00,,0816.0,4.99,0.00,29.6,27.7,00.0,38.5,31.3,08.6,0000.0,0021.06,0006.21,0004.00
2022-06-13 13:20:00,,0816.0,5.01,0.00,29.6,27.8,00.0,38.5,31.3,08.4,0000.0,0019.51,0006.16,0003.99
2022-06-13 13:21:00,,0816.0,5.00,0.00,29.6,27.9,00.0,38.5,31.4,08.3,0000.0,0019.53,0006.14,0003.98
2022-06-13 13:22:00,,0816.1,5.00,0.00,29.6,28.0,00.0,38.5,31.4,07.9,0000.0,0020.13,0006.23,0003.99
2022-06-13 13:23:00,,0816.0,4.99,0.00,29.6,28.1,00.0,38.5,31.4,08.2,0000.0,0019.80,0006.28,0004.00
2022-06-13 13:24:00,,0816.0,4.99,0.00,29.6,28.2,00.0,38.5,31.4,08.4,0000.0,0019.46,0006.26,0004.01
2022-06-13 13:25:00,,0816.0,5.00,0.00,29.6,28.3,00.0,38.5,31.5,08.2,0000.0,0019.86,0006.35,0004.02
2022-06-13 13:26:00,,0816.0,5.00,0.00,29.6,28.4,00.0,38.5,31.5,08.2,0000.0,0019.31,0006.32,0004.03
2022-06-13 13:27:00,,0816.0,5.00,0.00,29.6,28.5,00.0,38.5,31.5,08.8,0000.0,0018.11,0006.35,0004.04
2022-06-13 13:28:00,,0816.0,4.99,0.00,29.6,28.6,00.0,38.5,31.5,08.9,0000.0,0017.68,0006.31,0004.04
2022-06-13 13:29:00,,0816.1,5.00,0.00,29.7,28.7,00.0,38.5,31.6,08.9,0000.0,0017.56,0006.40,0004.06
2022-06-13 13:30:00,,0816.1,4.99,0.00,29.7,28.7,00.0,38.5,31.6,09.3,0000.0,0017.52,0006.48,0004.08
2022-06-13 13:31:00,,0816.1,5.00,0.00,29.7,28.8,00.0,38.5,31.6,08.5,0000.0,0017.94,0006.55,0004.10
2022-06-13 13:32:00,,0816.0,5.00,0.00,29.7,28.8,00.0,38.5,31.7,10.5,0000.0,0018.66,0006.64,0004.11
2022-06-13 13:33:00,,0816.0,5.00,0.00,29.8,28.8,00.0,38.5,31.7,08.9,0000.0,0018.51,0006.61,0004.11
2022-06-13 13:34:00,,0816.0,5.00,0.00,29.7,28.3,00.0,38.5,31.6,08.7,0000.0,0018.59,0006.59,0004.10
2022-06-13 13:35:00,,0816.0,5.01,0.00,29.7,27.7,00.0,38.4,31.4,09.4,0000.0,0019.02,0006.57,0004.11
2022-06-13 13:36:00,,0816.1,4.99,0.00,29.6,27.6,00.0,38.4,31.3,10.0,0000.0,0018.37,0006.46,0004.11
2022-06-13 13:37:00,,0816.0,5.01,0.00,29.6,27.7,00.0,38.4,31.3,08.5,0000.0,0019.48,0006.44,0004.10
2022-06-13 13:38:00,,0816.1,5.00,0.00,29.5,27.7,00.0,38.4,31.3,07.8,0000.0,0019.55,0006.33,0004.08
2022-06-13 13:39:00,,0816.0,5.00,0.00,29.5,27.9,00.0,38.4,31.3,08.9,0000.0,0020.50,0006.35,0004.08
2022-06-13 13:40:00,,0816.1,5.01,0.00,29.5,28.0,00.0,38.4,31.3,08.8,0000.0,0020.69,0006.34,0004.08
2022-06-13 13:41:00,,0816.0,5.01,0.00,29.5,28.1,00.0,38.4,31.4,08.0,0000.0,0021.91,0006.33,0004.07
2022-06-13 13:42:00,,0816.0,5.00,0.00,29.5,28.2,00.0,38.4,31.4,07.8,0000.0,0021.93,0006.24,0004.07
2022-06-13 13:43:00,,0816.0,4.98,0.00,29.5,28.3,00.0,38.4,31.4,08.4,0000.0,0021.09,0006.14,0004.07
2022-06-13 13:44:00,,0816.1,4.99,0.00,29.6,28.4,00.0,38.4,31.5,10.8,0000.0,0021.73,0006.15,0004.06
2022-06-13 13:45:00,,0816.1,5.01,0.00,29.6,28.5,00.0,38.4,31.5,10.7,0000.0,0021.19,0006.11,0004.06
2022-06-13 13:46:00,,0816.1,4.99,0.00,29.6,28.6,00.0,38.4,31.5,11.6,0000.0,0020.44,0006.07,0004.05
2022-06-13 13:47:00,,0816.1,4.99,0.00,29.6,28.6,00.0,38.4,31.5,11.0,0000.0,0020.93,0006.13,0004.04
2022-06-13 13:48:00,,0816.1,4.99,0.00,29.7,28.7,00.0,38.5,31.6,09.6,0000.0,0019.80,0006.09,0004.04
2022-06-13 13:49:00,,0816.1,5.01,0.00,29.7,28.8,00.0,38.5,31.6,09.2,0000.0,0019.81,0006.14,0004.03
2022-06-13 13:50:00,,0816.1,5.00,0.00,29.7,28.6,00.0,38.5,31.6,09.0,0000.0,0018.68,0006.11,0004.02
2022-06-13 13:51:00,,0816.1,5.00,0.00,29.7,27.9,00.0,38.4,31.4,11.1,0000.0,0018.19,0006.11,0004.02
2022-06-13 13:52:00,,0816.1,5.01,0.00,29.6,27.6,00.0,38.3,31.3,07.4,0000.0,0017.04,0006.10,0004.05
2022-06-13 13:53:00,,0816.1,5.00,0.00,29.6,27.6,00.0,38.4,31.3,07.5,0000.0,0016.89,0006.09,0004.07
2022-06-13 13:54:00,,0816.1,5.00,0.00,29.5,27.7,00.0,38.4,31.3,08.3,0000.0,0017.13,0006.11,0004.10
2022-06-13 13:55:00,,0816.1,4.99,0.00,29.5,27.8,00.0,38.4,31.3,09.3,0000.0,0016.03,0006.06,0004.13
2022-06-13 13:56:00,,0816.1,5.00,0.00,29.5,27.9,00.0,38.4,31.3,07.3,0000.0,0016.22,0006.10,0004.19
2022-06-13 13:57:00,,0816.1,5.02,0.00,29.5,28.1,00.0,38.4,31.3,08.5,-001.0,0017.16,0006.27,0004.32
2022-06-13 13:58:00,,0816.2,5.00,0.00,29.5,28.2,00.0,38.4,31.4,08.3,-000.3,0016.61,0006.24,0004.37
2022-06-13 13:59:00,,0816.1,5.00,0.00,29.5,28.3,00.0,38.4,31.4,08.8,0001.0,0017.80,0006.60,0004.73
